Find Starlink 5071

NORAD ID: 55402 Int'l Des: 2023-014 Owner: SPXS Country: US Constellation: starlink operational
LEOCIRCULAR

現在のビュー

3D地球を読み込み中...

About Starlink 5071

Starlink 5071 (NORAD 55402) is a starlink constellation satellite (v1.5) launched Jan 31, 2023 by SPXS of US. It operates in LEO, CIRCULAR orbit with a mass of 305.00 kg.

次回通過

Passes for default location (London). Set your location on the main map for personalized predictions.

高度履歴

Loading altitude history...

軌道要素

1 55402U 23014M 26250.54251421 -.00001422 00000-0 -11147-3 0 9993
2 55402 70.0011 326.0072 0002990 261.7526 98.3294 14.98319663199291
Epoch: Sep 7, 2026 • Age: 11 hours

現在のステータス

高度 595.5 km
遠地点 / 近地点 N/A
速度 7.56 km/s
衛星直下点 -69.94°S, 117.04°W
打ち上げ日 Jan 31, 2023
運用期間 3.6 years
タイプ internet

技術仕様

分類 Payload
質量 305.00 kg
乾燥質量 290.00 kg
総質量 305.00 kg
長さ 0.20 m
直径 2.80 m
スパン 9.00 m
形状 Box + pan
製造者 SPXS
バスタイプ Starlink
フェーズステータス In Orbit
所有者/国 SPXS/US

Most Searched